Theta_e
329 326 323 326 330 331 331 331 329 330 331 329 329 330 330 328 331 337 335 336 334 333 338 338 336 337 335 333 332 331 330 330 331 331 330 332 331 331 330 331 335 330 330 330 329 329 328 327 328
328 325 325 329 334 332 330 328 329 330 331 330 329 330 331 335 335 336 336 335 335 333 336 338 336 336 334 333 332 330 330 330 330 331 330 330 330 331 330 329 330 329 329 331 328 328 328 327 327
327 325 328 332 333 332 331 329 328 332 331 331 331 331 331 334 335 334 336 335 335 332 335 338 336 335 334 333 331 330 330 329 329 330 330 330 329 330 331 328 329 329 329 329 328 328 328 327 326
327 330 328 332 334 329 328 329 329 332 331 330 332 331 332 333 335 333 336 335 334 332 335 337 336 335 334 333 330 331 331 329 328 330 329 329 328 329 329 328 329 328 328 328 328 328 327 326 323
331 332 334 333 331 328 328 329 330 331 331 331 331 330 331 334 335 334 335 335 333 331 334 336 336 335 334 333 329 329 331 331 329 328 327 328 328 327 329 328 328 328 328 328 327 327 326 323 320
334 333 337 336 332 327 328 329 330 331 330 331 331 329 332 334 335 334 333 333 332 329 334 337 336 335 334 332 330 329 330 332 329 328 327 327 327 327 328 328 327 327 327 327 327 326 322 320 320
335 338 338 337 334 329 325 327 331 330 330 331 331 330 333 334 335 334 332 332 331 329 333 336 338 336 334 333 331 329 329 334 330 328 327 326 326 326 327 327 327 327 327 328 324 321 319 318 319
332 335 338 336 336 336 326 326 325 328 330 329 330 331 331 334 334 334 332 331 330 329 331 334 336 337 336 334 332 330 329 330 329 328 327 326 326 326 326 327 326 326 326 326 325 322 320 318 318
329 336 338 337 336 335 327 325 325 323 326 328 331 331 332 334 334 334 332 331 329 328 329 332 334 335 335 334 333 330 329 328 327 327 327 326 326 325 325 326 326 326 325 323 323 323 320 319 317
334 338 336 334 334 333 330 329 328 327 326 327 328 330 332 333 334 334 332 330 327 327 329 329 332 334 334 333 332 331 329 328 328 327 326 327 327 326 325 326 326 326 325 322 321 321 320 321 321
331 334 333 333 332 330 331 330 330 330 332 329 329 328 332 333 334 333 332 330 329 326 328 327 330 332 333 332 332 331 329 328 327 328 328 327 326 326 325 324 325 325 323 323 320 319 320 322 322
330 329 328 331 330 328 330 330 332 330 331 330 331 328 327 331 332 333 333 331 330 327 326 329 327 330 332 333 331 330 329 328 327 327 328 328 326 326 324 324 322 323 321 323 322 322 322 322 321
330 324 326 327 329 329 329 330 330 330 329 328 328 328 326 325 328 329 331 332 331 329 327 328 329 327 330 331 330 329 329 328 327 327 327 326 326 326 325 325 323 322 321 322 322 321 322 321 321
326 326 325 325 327 327 327 327 327 327 326 326 328 328 326 327 326 326 329 332 332 331 328 327 329 328 327 329 329 329 328 327 327 327 326 326 325 325 325 325 324 322 321 320 320 320 321 322 321
327 329 326 327 327 327 326 328 326 325 326 325 326 326 326 325 327 327 327 331 332 332 330 328 329 328 327 328 329 328 328 327 327 326 326 325 324 323 323 323 323 322 321 320 320 320 321 321 321
329 327 328 322 325 327 328 324 322 323 324 325 327 327 327 326 325 325 326 327 331 332 331 330 329 329 328 327 328 328 327 327 326 327 326 325 324 323 323 322 321 321 321 320 319 319 320 320 321
328 329 330 327 325 325 330 327 323 324 325 325 326 326 326 327 326 324 325 326 329 331 332 331 330 329 328 328 327 327 327 327 326 327 327 326 324 323 323 323 323 321 320 319 319 319 320 321 321
326 328 325 325 324 325 327 327 326 326 326 327 327 327 326 325 325 325 324 324 326 329 331 332 332 330 329 328 328 328 327 327 326 325 327 327 326 324 323 324 325 324 323 321 319 319 321 321 322
322 323 324 323 323 324 324 325 324 324 324 325 326 326 326 326 325 324 326 323 323 327 330 331 332 332 330 329 329 329 327 325 326 325 325 327 327 326 324 324 325 326 325 324 322 322 322 323 322
325 325 324 323 321 323 322 323 322 322 323 324 324 325 325 325 325 324 323 326 322 325 329 330 331 331 331 330 329 329 328 325 325 325 325 326 327 327 326 324 324 326 326 325 324 323 324 324 323
322 323 323 324 321 321 321 323 322 321 321 322 322 323 323 323 325 324 324 323 325 324 327 329 330 331 331 331 330 330 329 328 327 326 327 328 327 327 327 325 325 325 325 326 325 325 324 324 324
323 320 320 320 322 324 319 323 320 319 319 319 320 321 321 323 324 323 324 324 323 323 325 328 330 331 331 331 331 331 330 329 328 327 327 326 326 327 327 326 325 325 324 325 325 325 325 324 324
323 319 320 320 323 322 321 324 320 320 320 320 320 320 320 321 322 322 324 324 325 325 323 328 329 331 331 331 331 331 331 330 329 328 327 326 326 326 326 327 326 325 325 325 325 326 325 325 324
319 321 321 322 324 327 323 322 321 319 321 322 322 321 321 321 322 322 322 323 324 325 325 324 329 330 331 331 331 331 331 330 330 328 327 327 326 326 326 326 326 325 325 325 325 326 326 325 325
320 322 326 326 325 327 320 325 322 322 322 322 321 321 322 322 322 321 320 320 320 323 324 325 325 329 329 332 331 331 331 330 330 329 328 327 327 326 326 325 326 325 325 326 326 326 327 325 325
321 322 324 322 327 324 321 326 325 321 321 321 322 321 321 320 317 313 312 312 313 315 319 322 322 325 328 330 332 331 331 331 330 330 329 328 328 328 328 327 327 326 326 327 327 327 327 326 325
320 323 320 321 322 324 324 322 321 321 321 321 320 320 317 317 315 312 312 310 309 310 313 318 319 321 323 328 331 331 330 330 330 329 329 329 329 329 329 328 327 327 327 327 327 327 327 326 325
319 318 323 322 323 323 318 320 321 320 320 319 320 318 315 315 316 315 315 313 310 309 308 310 312 318 318 322 327 330 330 330 330 329 329 330 330 330 330 330 328 326 326 325 325 325 325 324 324
317 320 320 321 323 322 320 318 317 317 317 318 318 316 315 313 316 317 315 315 313 309 308 307 309 312 315 319 323 327 328 329 329 330 329 329 330 330 330 330 328 327 325 324 323 323 323 323 323
317 317 319 321 318 320 320 320 315 317 318 318 317 315 316 316 317 316 316 315 316 314 312 307 307 309 311 314 320 323 326 327 328 329 329 329 330 330 330 329 329 329 327 324 322 322 321 321 321
Wind_Speed
20 14 11 7 5 2 4 5 2 5 3 4 5 4 10 5 8 4 8 9 15 17 15 15 15 14 13 14 15 17 16 15 13 12 12 12 13 14 15 14 18 19 16 17 17 17 18 17 18
20 13 7 3 4 3 5 2 2 6 5 3 3 2 1 7 6 7 11 10 16 15 15 15 16 16 14 15 13 15 16 15 14 12 12 11 12 12 13 14 13 14 15 16 16 16 16 16 17
17 9 4 4 3 6 4 4 5 5 3 2 2 2 5 4 4 8 7 15 16 15 15 15 18 17 16 15 13 16 15 14 13 11 11 11 11 13 11 12 13 13 14 14 15 14 15 16 17
10 4 4 5 2 6 5 5 7 8 3 2 3 2 4 5 3 4 15 17 15 14 15 15 18 17 16 15 13 16 15 11 12 11 9 10 10 11 12 11 12 12 12 13 13 13 14 14 15
6 4 4 3 3 4 4 2 4 8 5 3 1 4 2 5 6 9 14 17 15 14 13 16 18 17 16 15 14 16 14 12 11 11 10 10 11 11 11 11 12 11 11 11 12 12 12 13 13
5 3 7 7 3 2 5 3 4 6 2 5 3 2 4 4 8 12 14 16 14 14 13 15 18 17 17 15 15 14 13 12 11 10 9 9 10 10 12 11 11 11 10 10 11 11 11 11 12
7 6 11 7 6 5 3 2 3 3 2 2 2 2 4 4 6 13 16 15 15 14 14 14 15 16 16 16 15 13 11 15 11 7 7 9 10 10 13 11 9 10 10 10 11 11 10 10 10
4 5 13 10 10 9 6 5 3 6 3 2 2 1 5 10 10 10 14 15 14 15 15 16 17 16 15 15 15 15 14 13 12 10 10 9 10 11 12 13 11 9 9 11 9 9 9 9 8
2 7 11 13 10 9 6 8 3 0 5 3 3 2 5 11 16 14 13 14 16 16 16 17 17 18 18 16 14 15 15 15 13 12 12 11 8 9 10 11 12 11 9 10 10 9 8 7 7
8 10 18 13 6 6 8 8 6 6 8 6 7 6 6 13 16 18 17 18 18 18 20 19 19 18 19 17 15 13 13 13 12 13 12 11 9 9 11 10 14 13 12 11 10 9 8 7 3
7 15 14 15 7 8 10 7 10 9 14 10 8 9 11 14 16 18 20 20 20 19 19 20 20 20 21 19 17 15 14 14 14 14 14 12 11 11 11 9 13 12 13 9 10 9 7 5 5
10 13 14 10 6 6 10 10 9 12 14 16 8 12 10 13 16 19 21 22 21 22 22 21 21 21 21 20 19 18 17 17 16 16 16 14 13 12 12 11 11 12 12 10 10 8 7 6 6
12 15 9 12 6 9 11 13 14 20 16 14 16 15 12 13 17 18 21 20 22 24 25 25 23 23 24 23 20 19 19 18 18 18 19 17 16 14 14 13 12 12 12 12 11 9 8 7 7
1 12 13 11 9 12 11 17 13 16 14 16 14 16 16 17 19 19 21 23 26 25 26 26 26 25 24 25 22 22 20 19 18 18 19 20 18 16 16 15 15 14 13 12 12 10 9 8 8
8 11 11 12 12 11 7 18 20 25 19 20 19 18 16 17 20 21 22 25 28 29 27 29 28 29 27 26 24 23 22 21 22 21 20 22 21 18 17 16 16 15 14 13 12 11 10 9 9
9 11 11 8 15 10 8 18 16 16 14 17 15 14 16 19 23 24 24 25 25 26 29 29 30 31 31 28 25 24 22 21 21 22 21 23 23 20 19 18 17 16 15 15 13 13 12 11 11
10 11 16 13 14 9 12 13 11 11 14 18 17 16 14 15 18 21 23 24 24 28 28 30 31 31 34 31 27 26 24 24 22 22 22 23 25 24 22 20 18 17 17 16 15 15 14 13 12
12 16 16 15 9 13 17 20 18 18 21 19 20 18 18 18 19 20 22 24 24 26 28 29 32 32 32 30 29 26 25 24 23 27 26 25 27 27 26 22 21 20 19 18 17 17 16 14 13
16 17 16 13 6 10 17 21 20 21 22 23 21 20 21 21 22 23 24 23 25 25 28 31 33 35 33 33 32 30 32 32 29 29 30 29 29 28 28 26 24 23 23 21 20 19 18 16 14
20 19 19 14 7 10 19 25 23 23 26 24 23 23 23 22 21 21 24 24 26 28 30 31 32 34 39 36 37 34 31 32 32 32 33 35 31 31 31 30 28 27 25 24 23 22 19 19 17
18 19 16 15 12 15 17 28 26 26 29 26 25 26 26 25 23 21 20 26 26 30 31 33 35 37 37 37 33 28 27 26 27 31 33 35 36 35 35 33 31 29 29 28 28 26 25 19 20
19 16 15 13 9 9 3 11 20 20 23 23 19 19 21 20 20 19 18 24 27 28 30 34 36 38 39 39 33 36 36 33 39 36 34 35 38 37 37 37 35 33 31 30 29 29 28 25 20
12 10 11 12 14 15 18 10 6 7 14 14 13 15 17 17 16 17 16 20 24 25 29 33 35 37 38 39 40 37 35 35 29 29 30 33 36 40 40 40 39 37 35 33 32 29 30 29 27
5 10 10 9 3 7 15 13 11 11 7 5 8 15 13 14 13 11 16 16 19 19 23 28 32 34 37 40 42 39 39 36 31 31 32 34 35 37 40 41 40 40 37 36 35 33 32 32 30
15 10 3 5 4 8 10 13 19 7 10 17 18 13 13 11 11 12 13 13 16 16 19 26 30 34 35 39 42 44 42 40 38 38 35 31 33 36 40 44 42 41 41 38 35 34 33 35 33
20 14 5 8 6 6 11 12 12 5 9 11 11 10 10 9 5 6 8 11 14 16 17 20 29 31 33 35 39 41 43 39 38 36 35 36 35 37 37 40 41 42 40 38 36 34 35 34 35
14 17 18 12 1 3 7 18 18 16 17 19 14 9 1 4 6 6 7 9 10 12 14 16 23 28 31 32 35 38 38 39 37 37 35 36 36 35 34 36 41 40 39 38 36 36 36 35 36
17 11 3 4 6 9 14 19 14 6 10 12 7 10 2 5 7 10 11 13 13 10 11 13 17 25 30 31 33 36 37 36 37 34 36 36 36 35 33 34 35 37 38 36 37 36 35 35 36
15 17 8 6 6 5 5 9 6 10 8 2 6 2 6 7 12 13 12 16 15 12 11 13 15 18 25 27 30 35 34 35 35 36 37 38 36 35 34 34 33 33 35 38 36 37 35 36 35
20 25 23 9 9 5 9 17 4 4 1 5 5 5 6 9 13 15 14 18 16 15 16 11 13 19 23 25 25 32 28 29 33 35 37 36 35 34 34 33 33 33 33 34 36 36 35 36 36
Wind_Direction
340 332 306 265 250 219 76 79 50 98 118 53 80 338 13 15 7 37 142 142 144 146 152 149 153 151 142 129 128 125 120 113 112 111 108 106 113 111 107 103 101 94 94 96 94 91 90 92 91
332 330 259 284 273 263 90 63 94 68 63 102 135 255 217 73 62 108 145 153 150 148 152 156 158 157 149 138 136 131 126 125 120 120 115 117 117 116 109 114 109 102 100 101 98 95 94 93 94
326 298 282 312 293 45 63 76 112 94 88 163 194 328 347 56 84 135 127 152 153 151 155 163 161 163 155 147 140 135 128 124 124 119 121 119 119 126 111 115 116 112 105 106 103 101 98 97 95
337 244 210 263 39 72 34 59 127 142 160 238 334 143 128 50 80 125 147 153 155 157 159 172 167 168 162 155 144 143 139 143 127 130 126 131 123 132 127 123 123 121 113 109 110 107 104 102 102
303 262 267 251 102 92 43 8 186 160 133 136 250 69 64 94 100 129 150 155 159 161 164 169 170 172 168 160 148 147 149 155 142 145 142 136 137 139 137 134 129 129 122 116 115 114 111 109 108
288 286 258 240 150 142 81 56 194 182 117 117 201 317 74 107 138 146 155 160 163 164 166 171 173 177 173 166 155 149 158 166 151 148 154 142 148 145 153 146 144 142 136 127 125 123 119 116 114
284 277 277 295 242 211 130 158 202 212 208 151 31 309 87 140 153 156 159 167 164 169 171 174 176 178 180 174 167 161 163 161 163 175 179 161 158 153 162 160 159 150 148 144 137 129 125 125 120
271 270 270 255 265 252 154 179 191 222 182 77 304 129 111 123 150 164 164 171 174 174 181 180 183 180 181 182 181 176 177 170 172 187 184 188 174 167 168 171 170 165 163 159 154 142 134 134 132
269 246 250 245 242 266 149 196 193 261 230 198 186 294 107 144 151 165 177 183 183 184 189 189 188 189 187 188 192 189 189 193 182 191 193 191 173 174 180 181 181 180 177 165 165 163 153 145 142
220 231 244 260 274 257 189 240 203 227 206 204 199 149 161 161 171 174 191 197 197 196 187 196 192 192 195 188 194 189 192 191 191 195 194 188 190 184 181 195 186 191 193 181 177 174 164 137 160
210 241 250 259 259 269 268 234 244 257 254 247 238 181 182 186 192 196 200 203 210 201 204 197 200 193 196 190 189 191 197 197 197 198 197 201 196 200 191 193 194 197 198 193 189 185 173 197 195
246 241 265 280 282 240 245 253 253 251 265 298 280 255 200 202 202 213 210 207 205 207 204 205 205 200 198 196 198 197 198 201 199 200 202 203 203 200 197 199 195 196 199 200 201 202 206 202 205
242 248 242 251 256 253 273 250 259 265 273 270 278 278 256 240 225 220 223 216 207 209 207 207 205 207 201 200 203 202 202 203 204 201 200 202 206 204 201 205 202 201 203 205 207 211 209 213 213
313 242 249 249 257 258 258 261 256 259 259 254 261 258 257 255 243 234 220 211 208 211 209 204 205 208 206 205 206 203 206 203 206 206 203 203 204 207 206 205 206 208 205 206 208 213 216 220 222
256 254 250 235 237 253 265 261 248 259 258 261 261 255 260 262 251 242 235 219 212 208 207 204 204 205 209 207 210 209 205 204 203 207 208 204 204 207 208 207 209 210 210 208 210 214 218 221 226
222 241 251 234 227 214 227 261 266 256 258 251 256 263 257 259 257 253 244 235 221 212 207 203 202 203 205 206 208 211 212 208 208 206 209 208 205 207 208 208 210 210 209 209 210 212 217 220 226
221 242 220 241 209 235 212 271 264 270 275 260 271 266 266 270 266 259 251 243 229 218 208 204 203 205 204 203 204 210 211 209 210 207 210 214 210 208 209 209 209 209 209 212 210 215 219 221 223
225 227 243 247 202 214 251 263 265 267 275 271 267 272 268 263 260 260 261 249 239 227 215 206 204 205 206 202 202 205 210 213 213 210 208 210 214 211 211 212 211 207 208 212 214 215 217 222 225
253 245 253 252 244 292 270 273 274 273 266 266 263 262 264 266 265 260 251 248 241 228 224 213 203 204 200 201 201 203 204 209 213 218 213 211 212 212 211 213 212 209 210 211 212 214 216 219 222
242 252 250 256 275 276 278 274 270 268 269 265 266 268 269 269 266 262 253 241 234 230 221 219 215 206 200 201 203 206 206 209 215 218 222 216 212 212 213 212 212 210 211 213 213 211 212 219 210
234 239 245 262 290 275 287 284 263 254 256 258 257 262 263 264 267 268 263 247 234 229 223 218 213 211 208 203 203 206 209 215 214 217 218 216 213 213 213 213 213 213 211 213 212 210 211 212 214
240 240 256 262 273 258 260 287 288 289 275 272 272 262 259 255 256 263 263 261 250 237 232 224 217 213 208 207 203 202 202 204 212 212 214 214 213 215 214 215 214 214 213 213 214 211 212 211 211
233 249 242 247 253 267 258 271 281 270 281 273 260 266 260 263 262 270 267 268 254 252 238 228 223 216 209 207 208 207 210 216 215 214 214 214 213 214 215 215 215 215 215 216 215 212 210 213 216
208 241 258 258 310 240 234 227 280 258 271 313 276 267 273 267 273 301 290 282 273 260 249 237 225 226 218 209 211 212 212 211 212 212 213 212 212 213 216 216 216 215 217 217 216 214 212 213 216
220 210 207 221 212 244 211 208 243 285 267 291 272 291 307 296 307 292 292 298 296 269 249 238 229 229 224 217 214 213 218 216 213 212 212 211 210 213 215 214 215 214 217 218 216 215 215 215 217
207 189 210 215 209 249 192 232 244 238 255 272 275 299 307 291 320 345 339 327 315 295 277 247 231 234 232 223 223 219 218 220 222 222 217 215 215 216 217 214 215 216 216 218 217 217 218 218 221
194 220 235 273 297 278 226 249 262 254 246 267 260 265 231 23 360 8 356 346 345 322 289 267 240 240 237 230 226 223 224 222 222 225 225 224 221 221 217 215 213 216 216 217 219 221 223 222 224
232 157 149 206 224 232 241 246 245 190 225 265 247 194 285 322 323 342 342 340 326 325 313 279 268 250 245 236 229 227 222 227 228 228 226 226 225 222 219 215 213 213 216 217 217 221 225 225 228
209 225 228 212 222 228 250 240 259 282 272 239 347 129 334 353 335 332 336 328 318 303 319 310 285 264 256 242 231 232 221 225 228 229 228 226 225 223 219 215 212 212 215 218 216 220 222 223 226
218 221 215 217 214 264 278 269 291 286 221 340 318 6 331 310 328 334 328 319 317 315 316 288 277 258 248 247 237 235 230 227 230 231 231 229 226 222 219 216 214 213 213 216 215 217 219 219 224